Location: Lecco
(45.8566°N, 9.3977°E)
Time: 00:58:30
(UTC+02:00)

Vanguard 2 Rocket - Visible Passes

Search period start: 25 June 2021 00:00
Search period end: 05 July 2021 00:00
Orbit: 553 x 3326 km, 32.9° (Epoch: 24 June)

Date Brightness Start Highest point End Pass type
(mag) Time Alt. Az. Time Alt. Az. Time Alt. Az.
25 Jun 9.7 01:57:06 10° W 02:04:39 16° SW 02:05:05 16° SW visible
25 Jun 9.5 22:33:07 10° W 22:51:15 47° SSW 23:02:31 15° SE visible
26 Jun 9.4 00:52:49 10° W 01:05:03 25° SW 01:08:15 23° SSW visible
26 Jun 9.7 21:30:51 10° WSW 21:49:58 52° S 22:04:20 10° ESE visible
26 Jun 9.4 23:49:28 10° W 00:04:56 34° SSW 00:11:27 24° S visible
27 Jun 10.1 02:15:32 10° WSW 02:17:03 10° SW 02:17:11 10° SW visible
27 Jun 9.6 22:46:39 10° W 23:04:17 43° SSW 23:14:38 18° SSE visible
28 Jun 9.8 01:07:36 10° W 01:17:33 19° SW 01:20:23 18° SSW visible
28 Jun 9.8 21:44:17 10° W 22:03:07 49° SSW 22:17:36 10° SE visible
29 Jun 9.6 00:03:32 10° W 00:17:36 28° SW 00:23:36 21° S visible
29 Jun 9.7 23:00:23 10° W 23:17:08 36° SSW 23:26:48 19° SSE visible
30 Jun 10.1 01:24:17 10° WSW 01:29:53 12° SW 01:32:33 12° SW visible
30 Jun 9.9 21:57:52 10° W 22:16:07 44° SSW 22:30:02 12° SE visible
01 Jul 9.9 00:18:14 10° W 00:30:04 21° SW 00:35:47 17° SSW visible
01 Jul 9.9 23:14:28 10° W 23:29:46 29° SW 23:39:03 17° S visible
02 Jul 10.0 22:11:39 10° W 22:28:57 38° SSW 22:42:19 12° SSE visible
03 Jul 10.3 00:34:29 10° WSW 00:42:22 14° SW 00:48:04 11° SSW visible
03 Jul 10.1 23:29:09 10° W 23:42:14 22° SW 23:51:23 13° S visible
04 Jul 10.2 22:25:46 10° W 22:41:36 30° SW 22:54:42 11° SSE visible
